Regional Weather Roundup
Issued by NWS

Home | Current Version | Previous Version | Graphics & Text | Print | Product List | Glossary On
Versions: 1 2 3 4 5 6 7 8 9 10 11 12 13 14 15 16 17 18 19 20 21 22 23 24 25 26 27 28 29 30 31 32 33 34 35 36 37 38 39 40 41 42 43 44 45 46 47 48 49 50
000
ASUS45 KSLC 281910
RWRUT

UTAH REGIONAL WEATHER ROUNDUP
NATIONAL WEATHER SERVICE SALT LAKE CITY UT
1200 PM MST SAT FEB 28 2015

UTZ001>011-023>025-282000-

NORTHERN UTAH

CITY           SKY/WX    TMP DP  RH WIND       PRES   REMARKS
BRIGHAM CITY   PTSUNNY   43  19  37 E5        29.72S
HILL AFB       CLOUDY    39  15  36 E13G23    29.70R WCI  32
LOGAN          SUNNY     39  23  52 CALM      29.74F
OGDEN          PTSUNNY   43  17  35 NE10      29.70R
PROVO AIRPORT  CLOUDY    43  23  45 SE10      29.71R
SALT LAKE CITY CLOUDY    43  20  39 E10       29.70R
VERNAL         PTSUNNY   38  21  50 VRB3      29.77F
WENDOVER       CLOUDY    39  23  52 N14       29.72S WCI  31
HEBER CITY     CLOUDY    32  21  64 CALM      29.72S
WEST JORDAN    PTSUNNY   39  23  52 E3        29.70S

$$

UTZ012>022-026-027-282000-

SOUTHERN/CENTRAL UTAH

CITY           SKY/WX    TMP DP  RH WIND       PRES   REMARKS
BLANDING       CLOUDY    31  31 100 S9        29.85S VSB<1/4 WCI  23
CEDAR CITY     CLOUDY    34  30  85 S15       29.68R WCI  24
DELTA          CLOUDY    32  32  99 N5        29.68R WCI  28
HANKSVILLE     CLOUDY    36  32  87 NE12      29.77S WCI  27
MILFORD        LGT SNOW  34  32  92 S7        29.67R FOG     WCI  28
MOAB/CYNLANDS  LGT SNOW  32  29  88 E10       29.75R FOG     WCI  24
PRICE          LGT SNOW  33  27  78 CALM      29.72F
ST GEORGE      CLOUDY    45  37  76 NW5       29.75R
KANAB            N/A     46  32  57 S17G26    29.73F

$$

REGIONAL REPORTS     COLORADO/ARIZONA

CITY           SKY/WX    TMP DP  RH WIND       PRES   REMARKS
CRAIG, CO      MOSUNNY   36  14  40 E9        29.77F WCI  29
GRAND JUNCTION PTSUNNY   36  18  48 SE10      29.77F WCI  28
RIFLE          PTSUNNY   35  17  47 CALM      29.77F
MONTROSE       CLOUDY    30  21  69 NW7       29.80S WCI  23
CORTEZ         SNOW      32  31  96 W7        29.81R VSB 1/2 WCI  26
PAGE, AZ       CLOUDY    41  34  76 NE5       29.73S
GRAND CANYON   SNOW      33  32  96 SW14G26   29.76S VSB 1/4 WCI  23
KINGMAN        PTSUNNY   53  35  50 S21       29.77R
FLAGSTAFF      CLOUDY    35  29  78 SW21G30   29.81R WCI  24

$$

REGIONAL REPORTS    NEVADA/IDAHO/WYOMING

CITY           SKY/WX    TMP DP  RH WIND       PRES   REMARKS
LAS VEGAS, NV  MOSUNNY   58  27  30 S20G30    29.66R
ELY            CLOUDY    33  28  81 NE3       29.67R
ELKO           CLOUDY    32  30  92 CALM      29.70S
POCATELLO, ID  MOSUNNY   40  19  43 NE17G24   29.78F WCI  31
BURLEY         CLOUDY    38  18  44 E18       29.77R WCI  28
EVANSTON, WY   MOSUNNY   25  17  72 E21       29.74S WCI  11
ROCK SPRINGS   CLOUDY    22  12  65 NE18      29.81S WCI   7

$$


USA.gov is the U.S. government's official web portal to all federal, state and local government web resources and services.